Weather History for Burlington Piers, ON

Change the Weather History Date:

Friday, October 5, 2012

  Actual Average Record
Temperature  
Mean Temperature 62 °F -  
Max Temperature 69 °F - - ()
Min Temperature 51 °F - - ()
Degree Days  
Heating Degree Days 3    
Growing Degree Days 12 (Base 50)    
Moisture  
Dew Point 49 °F    
Average Humidity 60    
Maximum Humidity 77    
Minimum Humidity 33    
Precipitation  
Precipitation 0.00 in - - ()
Sea Level Pressure  
Sea Level Pressure 29.95 in    
Wind  
Wind Speed 6 mph ()    
Max Wind Speed 12 mph    
Max Gust Speed 20 mph    
T = Trace of Precipitation, MM = Missing Value Source: Averaged Metar Reports

Daily Weather History Graph

Daily Weather History Graph

Search for Another Location

Airport:

Trip Planner

Search our weather history database for the weather conditions in past years. The results will help you decide how hot, cold, wet, or windy it might be!

Date:

Astronomy

Oct. 05, 2012 Rise Set
Actual Time 7:21 AM EDT 6:52 PM EDT
Civil Twilight 6:53 AM EDT 7:20 PM EDT
Nautical Twilight 6:20 AM EDT 7:53 PM EDT
Astronomical Twilight 5:46 AM EDT 8:26 PM EDT
Moon 10:06 PM EDT (10/5) 12:36 PM EDT (10/5)
Length of Visible Light 12h 27m
Length of Day
11h 30m
Waning Gibbous, 74% of the Moon is Illuminated
Oct 5
Waning Gibbous
Oct 8
Last Quarter
Oct 15
New
Oct 21
First Quarter
Oct 29
Full

Hourly Weather History & Observations

Time (EDT) Temp. Dew Point Humidity Pressure Visibility Wind Dir Wind Speed Gust Speed Precip Events Conditions
12:00 AM 64.0 °F 53.2 °F 68% 30.00 in - SSW 6.9 mph - N/A   Unknown
1:00 AM 63.9 °F 56.1 °F 76% 29.99 in - SW 3.5 mph - N/A   Unknown
2:00 AM 65 °F 56 °F 64% 29.97 in - SSW 8.1 mph - -  
2:00 AM 65.5 °F 55.6 °F 70% 29.97 in - SSW 8.1 mph - N/A   Unknown
3:00 AM 69.1 °F 55.0 °F 61% 29.96 in - SSW 9.2 mph - N/A   Unknown
4:00 AM 66.2 °F 56.3 °F 70% 29.95 in - SW 9.2 mph - N/A   Unknown
5:00 AM 64.9 °F 56.7 °F 74% 29.95 in - SW 5.8 mph - N/A   Unknown
6:00 AM 64.8 °F 57.2 °F 76% 29.94 in - SW 5.8 mph - N/A   Unknown
7:00 AM 65.7 °F 57.4 °F 75% 29.96 in - SW 6.9 mph - N/A   Unknown
8:00 AM 65 °F 57 °F 68% 29.96 in - SW 6.9 mph - -  
8:00 AM 65.3 °F 57.0 °F 75% 29.96 in - SW 6.9 mph - N/A   Unknown
10:00 AM 64.4 °F 54.5 °F 70% 29.98 in - WSW 10.4 mph 19.6 mph N/A   Unknown
11:00 AM 63.9 °F 50.9 °F 63% 29.97 in - SW 9.2 mph - N/A   Unknown
12:00 PM 64.4 °F 48.0 °F 55% 29.96 in - WSW 11.5 mph 19.6 mph N/A   Unknown
1:00 PM 63.9 °F 47.1 °F 54% 29.96 in - WSW 10.4 mph - N/A   Unknown
2:00 PM 64 °F 46 °F 41% 29.95 in - WSW 6.9 mph - -  
2:00 PM 63.9 °F 45.9 °F 52% 29.95 in - WSW 6.9 mph - N/A   Unknown
3:00 PM 63.5 °F 44.2 °F 49% 29.96 in - West 6.9 mph - N/A   Unknown
4:00 PM 63.3 °F 42.3 °F 46% 29.94 in - WSW 9.2 mph - N/A   Unknown
5:00 PM 62.6 °F 43.3 °F 49% 29.93 in - West 3.5 mph - N/A   Unknown
6:00 PM 62.4 °F 41.4 °F 46% 29.92 in - WSW 5.8 mph - N/A   Unknown
7:00 PM 61.7 °F 40.3 °F 45% 29.91 in - West 4.6 mph - N/A   Unknown
8:00 PM 61 °F 39 °F 33% 29.92 in - WSW 4.6 mph - -  
8:00 PM 60.8 °F 39.4 °F 45% 29.92 in - WSW 4.6 mph - N/A   Unknown
9:00 PM 59.0 °F 43.5 °F 56% 29.91 in - West 4.6 mph - N/A   Unknown
10:00 PM 55.0 °F 44.4 °F 67% 29.93 in - WSW 8.1 mph - N/A   Unknown
11:00 PM 51.4 °F 44.6 °F 77% 29.91 in - West 5.8 mph - N/A   Unknown